Location: *
(44.1392°N, 4.8079°E)
Time: 22:21:50
(UTC+00:00)

SL-4 R/B - Pass Details

Date: 21 June 2021
Orbit: 428 x 662 km, 51.6° (Epoch: 01 August)

Event Time Altitude Azimuth Distance (km) Brightness Sun altitude
Rises 02:53:09 0° 301° (WNW) 2,522 5.3 -9.6°
Reaches altitude 10° 02:55:23 10° 306° (NW) 1,610 4.3 -9.3°
Maximum altitude 02:58:56 58° 26° (NNE) 524 2.3 -8.9°
Drops below altitude 10° 03:02:19 10° 107° (ESE) 1,533 4.7 -8.4°
Sets 03:04:25 0° 111° (ESE) 2,387 5.6 -8.2°
